Home > Weather > Verden (Aller) > Past weeks

Flag for Germany Weather for the Past 2 Weeks in Verden (Aller), Lower Saxony, Germany

Now
39 °F

Partly sunny.


Feels Like: 31 °F
Forecast: 37 / 43 °F
Wind: 14 mph from Southwest

Location: Bremen Airport

Current Time: Feb 10, 2016 at 12:54:35 PM

Latest Report: Feb 10, 2016 at 12:20 PM


Visibility: N/A

Pressure: 29.24 "Hg

Humidity: 87%

Dew point: 36 °F

Location of Verden (Aller)Location

Historic Weather in Verden (Aller) — Graph

°F

Verden (Aller) Temperature Yesterday

Maximum temperature yesterday: 46 °F (at 10:50 AM)
Minimum temperature yesterday: 32 °F (at 9:50 PM)
Average temperature yesterday: 42 °F

High & Low Weather Summary for the Past Weeks

 TemperatureHumidityPressure
High54 °F (Jan 27, 6:20 PM)100% (Jan 28, 1:20 AM)30.24 "Hg (Jan 28, 1:20 AM)
Low32 °F (Feb 4, 10:50 PM)61% (Feb 3, 1:20 PM)28.74 "Hg (Feb 9, 8:20 PM)
Average44 °F83%29.75 "Hg
* Reported Jan 26 11:20 AM — Feb 10 11:20 AM, Verden (Aller), Weather by CustomWeather, © 2016

Note: Actual official high and low records may vary slightly from our data, if they occured in-between our weather recording intervals... More about our weather records

Advertising

Verden (Aller) Weather History for the Previous 24 Hours

 ConditionsComfort  
Time TempWeatherWind HumidityBarometerVisibility
11:20 AM
Wed, Feb 10
39 °FPartly sunny.14 mph87%29.21 "HgN/A
10:50 AM39 °FPartly sunny.10 mph87%29.21 "HgN/A
10:20 AM39 °FPartly sunny.12 mph81%29.21 "HgN/A
9:50 AM37 °FPartly sunny.8 mph93%29.21 "HgN/A
9:20 AM37 °FPartly sunny.10 mph87%29.18 "HgN/A
8:50 AM37 °FScattered clouds.13 mph87%29.18 "HgN/A
8:20 AM37 °FPartly sunny.13 mph87%29.18 "HgN/A
7:50 AM37 °FPassing clouds.12 mph87%29.18 "HgN/A
7:20 AM37 °FPassing clouds.10 mph87%29.18 "HgN/A
6:50 AM37 °FPassing clouds.9 mph87%29.18 "HgN/A
6:20 AM36 °FLight rain. Passing clouds.12 mph93%29.18 "HgN/A
5:50 AM36 °FLight rain. Passing clouds.14 mph93%29.15 "HgN/A
5:20 AM36 °FLight rain. Passing clouds.9 mph93%29.15 "HgN/A
4:20 AM37 °FChilly.15 mph87%29.15 "HgN/A
3:50 AM36 °FPassing clouds.14 mph93%29.15 "HgN/A
3:20 AM36 °FPassing clouds.13 mph93%29.15 "HgN/A
2:20 AM36 °FPassing clouds.16 mph100%29.12 "HgN/A
1:20 AM36 °FPassing clouds.16 mph100%29.09 "HgN/A
12:20 AM34 °FLight rain. Partly cloudy.14 mph100%29.06 "HgN/A
11:50 PM
Tue, Feb 9
36 °FLight rain. Partly cloudy.17 mph93%29.03 "HgN/A
11:20 PM34 °FLight rain. Passing clouds.21 mph100%29.00 "HgN/A
10:20 PM32 °FLight snow. Passing clouds.24 mph100%28.91 "Hg1 mi
9:50 PM32 °FLight snow. Passing clouds.25 mph100%28.85 "Hg1 mi
9:20 PM34 °FLight rain. Passing clouds.25 mph93%28.80 "Hg4 mi
8:50 PM39 °FLight rain. Passing clouds.15 mph100%28.77 "Hg5 mi
8:20 PM41 °FLight rain. Passing clouds.5 mph93%28.74 "HgN/A
7:50 PM41 °FRain. Passing clouds.7 mph93%28.77 "HgN/A
7:20 PM39 °FRain. Passing clouds.14 mph100%28.77 "Hg5 mi
6:50 PM39 °FRain. Mostly cloudy.17 mph93%28.80 "HgN/A
6:20 PM39 °FRain. Mostly cloudy.18 mph87%28.85 "Hg5 mi
5:50 PM39 °FRain. Mostly cloudy.16 mph93%28.88 "Hg4 mi
4:50 PM43 °FRain. Mostly cloudy.15 mph87%28.94 "HgN/A
4:20 PM43 °FRain. Mostly cloudy.14 mph87%28.97 "HgN/A
3:50 PM45 °FLight rain. More clouds than sun.9 mph76%29.00 "HgN/A
3:20 PM45 °FCloudy.10 mph76%29.03 "HgN/A
2:50 PM45 °FMostly cloudy.8 mph76%29.06 "HgN/A
2:20 PM45 °FMostly cloudy.10 mph76%29.09 "HgN/A
1:50 PM45 °FMostly cloudy.10 mph81%29.12 "HgN/A
1:20 PM45 °FBroken clouds.10 mph81%29.15 "HgN/A
12:50 PM45 °FPartly sunny.10 mph81%29.18 "HgN/A
12:20 PM45 °FPartly sunny.13 mph76%29.21 "HgN/A
Weather by CustomWeather, © 2016

See weather overviewHow to use our weather pages